weather.gov     
National Weather Service

Terminal Aerodrome Forecast
NWS Homepage
This page is being discontinued on March 12, 2014.
The same data is available at this site. Please update your bookmarks.
Thank you, and we apologize for the inconvenience.
Please send an email to SR-SRH.Webmaster@noaa.gov with any concerns.


Current Version
Previous Version:    01  02  03  04  05  06  07  08  09  10  11  12  13  14  15  16  17  18  19  20  21  22  23  24  25  26  27  28  29  30  
   31  32  33  
[Printable]
088
FTUS45 KBYZ 311310 AAA
TAFLVM
TAF AMD
KLVM 311310Z 3113/0112 33015KT P6SM BKN120
     FM311900 31017KT P6SM VCSH BKN070
     FM312300 33006KT 4SM -SN BKN020 OVC030
     FM011000 27008KT P6SM -SN BKN025 OVC040=


088
FTUS45 KBYZ 311310 AAA
TAFLVM
TAF AMD
KLVM 311310Z 3113/0112 33015KT P6SM BKN120
     FM311900 31017KT P6SM VCSH BKN070
     FM312300 33006KT 4SM -SN BKN020 OVC030
     FM011000 27008KT P6SM -SN BKN025 OVC040=




U.S. Dept. of Commerce
NOAA National Weather Service
1325 East West Highway
Silver Spring, MD 20910
E-mail: w-nws.webmaster@noaa.gov
Page last modified: May 16, 2007
NATIONAL WEATHER SERVICE: for Safety, for Work, for Fun - FOR LIFE